Regional Weather Roundup
Issued by NWS

Home | Current Version | Previous Version | Graphics & Text | Print | Product List | Glossary On
Versions: 1 2 3 4 5 6 7 8 9 10 11 12 13 14 15 16 17 18 19 20 21 22 23 24 25 26 27 28 29 30 31 32 33 34 35 36 37 38 39 40 41 42 43 44 45 46 47 48 49 50
000
ASUS43 KMPX 291001
RWRMN
WEATHER ROUNDUP FOR MINNESOTA
NATIONAL WEATHER SERVICE TWIN CITIES/CHANHASSEN MN
500 AM CDT FRI MAY 29 2015


NOTE: "FAIR" INDICATES FEW OR NO CLOUDS BELOW 12,000 FEET WITH NO
SIGNIFICANT WEATHER AND/OR OBSTRUCTIONS TO VISIBILITY. N/A MEANS
CURRENT SKY AND/OR WEATHER CONDITIONS ARE NOT AVAILABLE.

MNZ060>063-068>070-291100-
   Twin Cities Metro

CITY           SKY/WX    TMP DP  RH WIND       PRES   REMARKS
TWIN CITIES    LGT RAIN  65  62  90 SE5       29.87R
ST PAUL        RAIN      63  62  97 VRB3      29.87F FOG
CRYSTAL        CLOUDY    67  64  90 SE6       29.85F
BLAINE         RAIN      66  64  94 E5        29.86F
LAKEVILLE      CLOUDY    63  61  94 S6        29.87F
EDEN PRAIRIE   CLOUDY    66  63  90 SE7       29.85F
SOUTH ST PAUL  LGT RAIN  64  62  94 S3        29.87F
LAKE ELMO      HVY RAIN  63  61  94 SE6       29.88F
$$
MNZ001>005-007-008-013>017-022>024-027-028-291100-
   Northwest Minnesota

CITY           SKY/WX    TMP DP  RH WIND       PRES   REMARKS
BEMIDJI        LGT RAIN  58  58  97 W7        29.85R
HALLOCK        CLOUDY    46  43  87 N29G36    29.99R
ROSEAU         CLOUDY    50  45  81 N18G24    29.94R
WARROAD        CLOUDY    48  45  87 NW17G23   29.93R
THIEF RVR FALL CLOUDY    52  50  93 N21G29    29.93R
CROOKSTON      CLOUDY    50  46  87 N25G32    29.95R
FOSSTON        LGT RAIN  55  54  94 N16       29.89R
DETROIT LAKES  CLOUDY    61  59  94 W3        29.88R
MOORHEAD       LGT RAIN  55  54  94 N23G31    29.91R
PARK RAPIDS    CLOUDY    59  57  93 N3        29.85S
MAHNOMEN       CLOUDY    60  59  98 N16G23    29.86R FOG
$$
MNZ006-009>011-018-025>026-291100-
   North Central Minnesota

CITY           SKY/WX    TMP DP  RH WIND       PRES   REMARKS
BAUDETTE       CLOUDY    57  54  89 N14       29.86S
FLAG ISLAND    CLOUDY    54  48  82 N24       29.90R
INTL FALLS     LGT RAIN  59  58  96 W6        29.81F
WASKISH        LGT RAIN  57  57 100 N12G20    29.85R
BIG FORK       LGT RAIN  59  57  94 CALM      29.84S
LONGVILLE      CLOUDY    59  59 100 W3        29.85R
GRAND RAPIDS   CLOUDY    57  54  88 NW3       29.85R
CRANE LAKE     LGT RAIN  55  55 100 CALM      29.84S
ORR            CLOUDY    55  52  88 CALM      29.81F
COOK           CLOUDY    57  52  82 CALM      29.85S
WALKER         FAIR      57  56  99 S3        29.85R FOG
$$
MNZ012-019>021-037-291100-
   Northeast Minnesota

CITY           SKY/WX    TMP DP  RH WIND       PRES   REMARKS
DULUTH         MOCLDY    52  47  83 S7        29.86F
HIBBING        CLOUDY    51  48  89 CALM      29.85R
EVELETH        MOCLDY    52  48  87 CALM      29.86R
DULUTH HARBOR  MOCLDY    43  41  93 E3        29.88F
TWO HARBORS    CLOUDY    46  43  87 CALM      29.86S
SILVER BAY     MOCLDY    45  43  93 CALM      29.85F
GRAND MARAIS     N/A     40  38  93 VRB3      29.88S
G MARAIS ARPRT PTCLDY    54  46  76 SW5       29.89S
$$
MNZ029>031-032-039>041-046>048-054>057-064-291100-
   West Central Minnesota

CITY           SKY/WX    TMP DP  RH WIND       PRES   REMARKS
FERGUS FALLS   DRIZZLE   61  61 100 N7        29.87R
WHEATON        CLOUDY    57  57 100 NW7       29.88S
MORRIS         LGT RAIN  61  59  94 N7        29.83F
ALEXANDRIA     CLOUDY    60  58  92 NW3       29.86S
ELBOW LAKE     MOCLDY    59  59  99 CALM      29.86R
WADENA         CLOUDY    57  57 100 CALM      29.85F FOG
GLENWOOD       CLOUDY    61  57  88 CALM      29.86R
APPLETON       CLOUDY    61  57  88 CALM      29.82R
BENSON         LGT RAIN  63  57  82 SE3       29.81F
ORTONVILLE     CLOUDY    61  57  88 NW6       29.84R
MADISON        MOCLDY    61  59  94 CALM      29.82R
WILLMAR        FAIR      64  61  88 SE5       29.83F
$$
MNZ033>034-036-042>043-049>051-058-059-291100-
   Central Minnesota

CITY           SKY/WX    TMP DP  RH WIND       PRES   REMARKS
ST CLOUD       MOCLDY    62  59  90 S7        29.82F
SAUK CENTRE    LGT RAIN  59  57  94 N3        29.84S
PAYNESVILLE    PTCLDY    60  58  94 E6        29.83F
AITKIN         CLOUDY    64  57  77 S3        29.82R
PINE RIVER     CLOUDY    59  59 100 NW5       29.89S
BRAINERD       CLOUDY    61  57  87 CALM      29.85R
STAPLES        CLOUDY    59  57  94 CALM      29.86S
LONG PRAIRIE   MOCLDY    59  55  88 CALM      29.85S
LITTLE FALLS   MOCLDY    59  55  88 NW3       29.84R
LITCHFIELD     MOCLDY    64  63  94 S3        29.84F
BUFFALO        CLOUDY    65  60  83 CALM      29.86F
MAPLE LAKE     MOCLDY    63  61  94 CALM      29.86F
$$
MNZ037-044-045-052-053-291100-
   East Central Minnesota

CITY           SKY/WX    TMP DP  RH WIND       PRES   REMARKS
PRINCETON      CLOUDY    64  61  88 CALM      29.84F
MORA           CLOUDY    63  59  88 S3        29.87S
CAMBRIDGE      CLOUDY    66  57  72 SE5       29.84F
RUSH CITY      DRIZZLE   62  59  90 SE6       29.87S
MOOSE LAKE     MOCLDY    46  45  93 CALM      29.84S
HINCKLEY       CLOUDY    63  57  82 SE8       29.85F
CLOQUET        MOCLDY    45  43  93 E3        29.85F
MCGREGOR       MOCLDY    63  57  82 CALM      29.84R
$$
MNZ071>073-080-081-089-090-097-098-291100-
   Southwest Minnesota

CITY           SKY/WX    TMP DP  RH WIND       PRES   REMARKS
MONTEVIDEO     CLOUDY    63  61  94 S7        29.82F
GRANITE FALLS  MOCLDY    63  61  93 SE5       29.84F
CANBY          CLOUDY    61  60  96 S8        29.84S
MARSHALL       CLOUDY    63  57  82 SW5       29.84S
REDWOOD FALLS  MOCLDY    65  61  87 CALM      29.83F
OLIVIA         MOCLDY    59  55  88 SE3       29.83F
PIPESTONE      CLOUDY    64  63  94 CALM      29.85S
WINDOM         MOCLDY    63  57  82 SW13      29.85S THUNDER
WORTHINGTON    MOCLDY    63  59  88 SW14      29.89R THUNDER
JACKSON        CLOUDY    64  63  94 S7        29.88S
TRACY          CLOUDY    65  63  93 CALM      29.87S
SLAYTON        RAIN      64  64  97 CALM      29.87F
$$
MNZ065>067-074>077-082>085-091>093-291100-
   South Central Minnesota

CITY           SKY/WX    TMP DP  RH WIND       PRES   REMARKS
MANKATO        CLOUDY    66  63  88 S8        29.86F
NEW ULM        MOCLDY    64  63  94 S5        29.84F
ST JAMES       LGT RAIN  66  63  88 SW13      29.86R
FAIRMONT       CLOUDY    64  59  82 SW10      29.87S
GLENCOE        MOCLDY    67  64  91 CALM      29.85F
FARIBAULT      CLOUDY    64  63  94 SE6       29.88S
OWATONNA       CLOUDY    64  61  88 S10       29.89S
WASECA         CLOUDY    63  59  88 S9        29.89S
ALBERT LEA     MOCLDY    64  63  94 S6        29.89F
$$
MNZ078>079-086>088-094>096-291100-
   Southeast Minnesota

CITY           SKY/WX    TMP DP  RH WIND       PRES   REMARKS
ROCHESTER      CLOUDY    63  60  90 S12       29.92F
RED WING         N/A     63  61  94 SE6       29.88F
STANTON        CLOUDY    65  61  87 S7        29.87F
DODGE CENTER   CLOUDY    64  63  94 S13       29.90F
WINONA         CLOUDY    63  61  94 CALM      29.92F
AUSTIN         CLOUDY    64  61  88 S8        29.90F
PRESTON        CLOUDY    63  60  91 S8        29.93F
$$
ABBREVIATIONS USED IN REMARKS
   TC - TEMPERATURES IN CELSIUS
  WCI - WIND CHILL INDEX
   HX - HEAT INDEX
  VSB - VISIBILITY
$$



USA.gov is the U.S. government's official web portal to all federal, state and local government web resources and services.